When you browse on this site, cookies collect data to enhance your experience and personalize the content and advertising you see.
Visit our Privacy Policy to learn more. By continuing to use the site, you agree to this use of cookies and data.
  • In Latvia
  • List of Countries
  • For 7 days
  • Water Temperature
  • Weather Map
  • Weather Widgets
  • user-avatar
    Login

    Hourly Weather Riga

    Today, 21 August, Wednesday

    Time Temperature Precipitation Wind Pressure Humidity
    00:00 +16°C° 0 mm 1 mps 766 mmHg 80%
    01:00 +16°C° 0 mm 1 mps 767 mmHg 79%
    02:00 +16°C° 0 mm 1 mps 767 mmHg 81%
    03:00 +16°C° 0 mm 1 mps 766 mmHg 82%
    04:00 +15°C° 0 mm 1 mps 766 mmHg 83%
    05:00 +15°C° 0 mm 1 mps 766 mmHg 84%
    06:00 +16°C° 0 mm 1 mps 766 mmHg 81%
    07:00 +17°C° 0 mm 2 mps 766 mmHg 79%
    08:00 +17°C° 0 mm 2 mps 766 mmHg 76%
    09:00 +17°C° 0.9 mm 2 mps 766 mmHg 79%
    10:00 +16°C° 0.9 mm 1 mps 766 mmHg 82%
    11:00 +15°C° 0.9 mm 1 mps 766 mmHg 85%
    12:00 +15°C° 1.2 mm 1 mps 766 mmHg 86%
    13:00 +15°C° 1.2 mm 1 mps 766 mmHg 87%
    14:00 +15°C° 1.2 mm 1 mps 766 mmHg 88%
    15:00 +16°C° 0 mm 1 mps 766 mmHg 83%
    16:00 +18°C° 0 mm 1 mps 766 mmHg 79%
    17:00 +19°C° 0 mm 1 mps 766 mmHg 75%
    18:00 +18°C° 0 mm 1 mps 767 mmHg 80%
    19:00 +16°C° 0 mm 2 mps 767 mmHg 85%
    20:00 +15°C° 0 mm 2 mps 767 mmHg 90%
    21:00 +15°C° 0 mm 2 mps 767 mmHg 91%
    22:00 +14°C° 0 mm 2 mps 767 mmHg 92%
    23:00 +13°C° 0 mm 3 mps 767 mmHg 92%

    Tomorrow, 22 August, Thursday

    Time Temperature Precipitation Wind Pressure Humidity
    00:00 +13°C° 0 mm 3 mps 767 mmHg 92%
    01:00 +12°C° 0 mm 3 mps 767 mmHg 93%
    02:00 +12°C° 0 mm 3 mps 768 mmHg 93%
    03:00 +12°C° 0 mm 3 mps 768 mmHg 93%
    04:00 +11°C° 0 mm 3 mps 767 mmHg 94%
    05:00 +11°C° 0 mm 3 mps 767 mmHg 94%
    06:00 +13°C° 0 mm 3 mps 768 mmHg 91%
    07:00 +14°C° 0 mm 3 mps 768 mmHg 87%
    08:00 +16°C° 0 mm 3 mps 768 mmHg 83%
    09:00 +18°C° 0 mm 3 mps 768 mmHg 74%
    10:00 +20°C° 0 mm 3 mps 769 mmHg 66%
    11:00 +21°C° 0 mm 3 mps 769 mmHg 57%
    12:00 +22°C° 0 mm 3 mps 769 mmHg 54%
    13:00 +22°C° 0 mm 3 mps 769 mmHg 52%
    14:00 +24°C° 0 mm 3 mps 769 mmHg 49%
    15:00 +22°C° 0 mm 3 mps 769 mmHg 49%
    16:00 +22°C° 0 mm 3 mps 769 mmHg 50%
    17:00 +22°C° 0 mm 3 mps 769 mmHg 50%
    18:00 +20°C° 0 mm 2 mps 769 mmHg 59%
    19:00 +18°C° 0 mm 2 mps 769 mmHg 68%
    20:00 +16°C° 0 mm 1 mps 769 mmHg 77%
    21:00 +15°C° 0 mm 1 mps 769 mmHg 79%
    22:00 +14°C° 0 mm 1 mps 769 mmHg 81%
    23:00 +14°C° 0 mm 1 mps 770 mmHg 84%

    Day after tomorrow, 23 August, Friday

    Time Temperature Precipitation Wind Pressure Humidity
    00:00 +13°C° 0 mm 2 mps 770 mmHg 84%
    01:00 +13°C° 0 mm 2 mps 770 mmHg 84%
    02:00 +13°C° 0 mm 2 mps 770 mmHg 84%
    03:00 +13°C° 0 mm 2 mps 770 mmHg 86%
    04:00 +12°C° 0 mm 2 mps 769 mmHg 88%
    05:00 +11°C° 0 mm 3 mps 769 mmHg 90%
    06:00 +12°C° 0 mm 3 mps 769 mmHg 82%
    07:00 +14°C° 0 mm 3 mps 769 mmHg 74%
    08:00 +16°C° 0 mm 3 mps 769 mmHg 67%
    09:00 +18°C° 0 mm 3 mps 769 mmHg 62%
    10:00 +20°C° 0 mm 3 mps 769 mmHg 58%
    11:00 +22°C° 0 mm 3 mps 769 mmHg 54%
    12:00 +24°C° 0 mm 3 mps 769 mmHg 52%
    13:00 +24°C° 0 mm 3 mps 769 mmHg 51%
    14:00 +25°C° 0 mm 4 mps 769 mmHg 49%
    15:00 +25°C° 0 mm 4 mps 769 mmHg 51%
    16:00 +25°C° 0 mm 4 mps 769 mmHg 53%
    17:00 +25°C° 0 mm 4 mps 768 mmHg 55%
    18:00 +22°C° 0 mm 3 mps 768 mmHg 61%
    19:00 +20°C° 0 mm 3 mps 768 mmHg 67%
    20:00 +19°C° 0 mm 3 mps 768 mmHg 74%
    21:00 +18°C° 0 mm 3 mps 768 mmHg 76%
    22:00 +18°C° 0 mm 4 mps 768 mmHg 78%
    23:00 +17°C° 0 mm 4 mps 768 mmHg 80%

    24 August, Saturday

    Time Temperature Precipitation Wind Pressure Humidity
    00:00 +15°C° 0 mm 4 mps 768 mmHg 81%
    01:00 +15°C° 0 mm 4 mps 768 mmHg 81%
    02:00 +15°C° 0 mm 4 mps 768 mmHg 82%
    03:00 +14°C° 0 mm 4 mps 768 mmHg 83%
    04:00 +14°C° 0 mm 4 mps 768 mmHg 83%
    05:00 +14°C° 0 mm 3 mps 767 mmHg 83%
    06:00 +15°C° 0 mm 4 mps 767 mmHg 79%
    07:00 +17°C° 0 mm 4 mps 767 mmHg 75%
    08:00 +18°C° 0 mm 4 mps 767 mmHg 72%
    09:00 +20°C° 0 mm 4 mps 767 mmHg 66%
    10:00 +21°C° 0 mm 4 mps 767 mmHg 61%
    11:00 +23°C° 0 mm 4 mps 767 mmHg 55%
    12:00 +25°C° 0 mm 4 mps 767 mmHg 52%
    13:00 +26°C° 0 mm 4 mps 767 mmHg 49%
    14:00 +26°C° 0 mm 4 mps 767 mmHg 47%
    15:00 +26°C° 0 mm 4 mps 766 mmHg 48%
    16:00 +26°C° 0 mm 4 mps 766 mmHg 50%
    17:00 +25°C° 0 mm 3 mps 766 mmHg 51%
    18:00 +22°C° 0 mm 3 mps 766 mmHg 61%
    19:00 +20°C° 0 mm 2 mps 766 mmHg 71%
    20:00 +18°C° 0 mm 2 mps 766 mmHg 81%
    21:00 +17°C° 0 mm 2 mps 767 mmHg 84%
    22:00 +17°C° 0 mm 2 mps 767 mmHg 87%
    23:00 +16°C° 0 mm 2 mps 767 mmHg 90%

    25 August, Sunday

    Time Temperature Precipitation Wind Pressure Humidity
    00:00 +16°C° 0 mm 2 mps 767 mmHg 91%
    01:00 +16°C° 0 mm 2 mps 767 mmHg 92%
    02:00 +15°C° 0 mm 2 mps 767 mmHg 94%
    03:00 +15°C° 0 mm 2 mps 767 mmHg 94%
    04:00 +15°C° 0 mm 2 mps 768 mmHg 94%
    05:00 +15°C° 0 mm 2 mps 768 mmHg 94%
    06:00 +16°C° 0 mm 2 mps 768 mmHg 89%
    07:00 +17°C° 0 mm 2 mps 768 mmHg 84%
    08:00 +19°C° 0 mm 2 mps 768 mmHg 78%
    09:00 +20°C° 0 mm 2 mps 769 mmHg 70%
    10:00 +21°C° 0 mm 2 mps 769 mmHg 62%
    11:00 +23°C° 0 mm 2 mps 769 mmHg 54%
    12:00 +23°C° 0 mm 2 mps 769 mmHg 51%
    13:00 +24°C° 0 mm 2 mps 769 mmHg 48%
    14:00 +24°C° 0 mm 3 mps 769 mmHg 45%
    15:00 +24°C° 0 mm 3 mps 769 mmHg 47%
    16:00 +22°C° 0 mm 3 mps 769 mmHg 49%
    17:00 +23°C° 0 mm 2 mps 768 mmHg 51%
    18:00 +20°C° 0 mm 2 mps 768 mmHg 59%
    19:00 +18°C° 0 mm 2 mps 769 mmHg 67%
    20:00 +16°C° 0 mm 2 mps 769 mmHg 75%
    21:00 +16°C° 0 mm 2 mps 769 mmHg 76%
    22:00 +16°C° 0 mm 2 mps 769 mmHg 76%
    23:00 +15°C° 0 mm 2 mps 769 mmHg 77%

    26 August, Monday

    Time Temperature Precipitation Wind Pressure Humidity
    00:00 +15°C° 0 mm 2 mps 769 mmHg 80%
    01:00 +14°C° 0 mm 2 mps 769 mmHg 82%
    02:00 +13°C° 0 mm 3 mps 769 mmHg 85%
    03:00 +13°C° 0 mm 3 mps 769 mmHg 86%
    04:00 +12°C° 0 mm 3 mps 768 mmHg 87%
    05:00 +12°C° 0 mm 3 mps 768 mmHg 89%
    06:00 +13°C° 0 mm 3 mps 768 mmHg 84%
    07:00 +16°C° 0 mm 3 mps 768 mmHg 79%
    08:00 +17°C° 0 mm 3 mps 768 mmHg 75%
    09:00 +19°C° 0 mm 3 mps 767 mmHg 70%
    10:00 +21°C° 0 mm 2 mps 767 mmHg 66%
    11:00 +24°C° 0 mm 2 mps 767 mmHg 62%
    12:00 +25°C° 0 mm 3 mps 767 mmHg 59%
    13:00 +25°C° 0 mm 3 mps 766 mmHg 57%
    14:00 +26°C° 0 mm 3 mps 766 mmHg 54%
    15:00 +26°C° 0 mm 3 mps 765 mmHg 55%
    16:00 +26°C° 0 mm 3 mps 765 mmHg 57%
    17:00 +26°C° 0 mm 3 mps 764 mmHg 58%
    18:00 +24°C° 0 mm 3 mps 764 mmHg 65%
    19:00 +21°C° 0 mm 3 mps 764 mmHg 73%
    20:00 +19°C° 0 mm 2 mps 763 mmHg 81%
    21:00 +19°C° 0 mm 3 mps 763 mmHg 82%
    22:00 +18°C° 0 mm 3 mps 763 mmHg 83%
    23:00 +18°C° 0 mm 3 mps 763 mmHg 84%
    Show more